Date,TemperatureHighF,TemperatureAvgF,TemperatureLowF,DewpointHighF,DewpointAvgF,DewpointLowF,HumidityHigh,HumidityAvg,HumidityLow,PressureMaxIn,PressureMinIn,WindSpeedMaxMPH,WindSpeedAvgMPH,GustSpeedMaxMPH,PrecipitationSumIn
2013-5-1,81.8,69.2,55.4,64.3,57.4,51.3,87,68,47,30.22,30.07,13,1,13,0.00
2013-5-2,76.4,67.2,56.7,60.3,55.1,49.8,79,66,54,30.26,30.11,14,1,14,0.00
2013-5-3,77.5,67.4,58.3,55.5,49.9,40.5,82,56,30,30.14,30.02,17,2,17,0.00
2013-5-4,71.7,64.0,55.9,50.4,45.8,39.8,65,52,43,30.08,29.98,17,3,17,0.00
2013-5-5,71.3,63.4,52.8,46.0,42.5,36.1,71,48,32,30.03,29.91,16,2,16,0.00
2013-5-6,67.6,61.0,57.8,57.8,50.1,38.6,90,68,39,30.00,29.93,11,1,11,0.05
2013-5-7,71.3,62.2,55.7,60.6,56.1,53.5,93,81,64,29.99,29.92,15,1,15,0.04
2013-5-8,72.1,64.1,56.1,57.5,54.5,51.3,85,72,54,29.99,29.92,9,1,9,0.00
2013-5-9,79.8,68.0,55.0,62.3,55.0,50.3,87,66,40,30.01,29.94,11,1,11,0.00
2013-5-10,73.2,63.8,59.1,66.0,60.5,57.2,97,89,68,29.97,29.80,20,1,20,0.91
2013-5-11,61.6,53.6,45.5,60.6,49.2,38.5,97,85,73,29.96,29.82,21,2,22,0.11
2013-5-12,53.4,46.2,38.2,39.0,34.3,30.8,87,65,45,30.10,29.96,18,3,18,0.01
2013-5-13,57.3,47.7,36.4,36.8,31.7,26.7,84,56,36,30.17,30.08,14,1,14,0.00
2013-5-14,78.7,58.4,39.5,59.4,45.3,31.4,79,63,42,30.14,29.80,16,1,16,0.00
2013-5-15,89.0,76.4,63.3,63.1,60.3,57.0,82,59,37,29.84,29.77,21,3,21,0.00
2013-5-16,78.3,70.8,64.0,65.7,62.0,54.6,92,75,44,29.99,29.82,14,1,14,0.35
2013-5-17,80.5,68.3,60.1,69.0,62.6,58.8,98,83,58,30.10,29.98,11,1,11,0.01
2013-5-18,80.9,70.7,62.9,67.9,62.8,58.8,90,77,60,30.10,29.99,10,1,10,0.01
2013-5-19,81.2,71.8,61.0,70.9,65.8,58.8,95,82,67,30.04,29.93,10,1,10,0.01
2013-5-20,88.5,75.8,65.0,74.3,68.9,63.8,98,81,60,30.02,29.90,11,0,11,0.00
2013-5-21,88.0,77.4,68.0,70.1,66.3,63.1,93,71,45,29.95,29.82,13,1,13,0.00
2013-5-22,81.8,72.5,62.9,67.1,63.5,60.0,94,74,55,29.87,29.74,14,1,14,0.26
2013-5-23,73.5,63.1,48.9,64.0,58.0,44.3,97,84,60,30.06,29.79,20,3,20,0.06
2013-5-24,59.8,51.0,43.2,44.6,39.8,37.1,85,66,48,30.31,30.06,18,4,18,0.00
2013-5-25,65.0,53.5,38.1,47.2,40.8,34.6,91,64,46,30.38,30.23,12,1,12,0.00
2013-5-26,69.5,57.4,42.2,43.9,38.3,33.7,85,52,29,30.33,30.20,9,1,9,0.00
2013-5-27,69.7,59.8,50.4,55.2,47.4,37.6,87,64,51,30.25,30.00,18,1,18,0.06
2013-5-28,85.0,74.4,63.8,67.9,62.6,55.1,84,68,49,30.04,29.95,11,1,11,0.00
2013-5-29,89.0,78.0,67.9,66.2,62.4,58.1,75,60,37,30.08,29.99,14,1,14,0.00
2013-5-30,90.0,78.3,65.1,71.2,65.9,61.8,91,67,47,30.18,30.03,11,0,11,0.00
2013-5-31,88.2,74.7,66.5,70.3,65.8,62.0,96,75,51,30.09,29.96,19,1,20,0.33